Change the Weather History Date:

Sunday, October 16, 2011

  Actual Average Record
Temperature  
Mean Temperature 52 °F -  
Max Temperature 57 °F 61 °F 85 °F (1963)
Min Temperature 46 °F 39 °F 23 °F (1991)
Degree Days  
Heating Degree Days 14    
Growing Degree Days 2 (Base 50)    
Moisture  
Dew Point 41 °F    
Average Humidity 69    
Maximum Humidity 94    
Minimum Humidity 44    
Precipitation  
Precipitation 0.00 in - - ()
Sea Level Pressure  
Sea Level Pressure 29.78 in    
Wind  
Wind Speed 10 mph (WSW)    
Max Wind Speed 22 mph    
Max Gust Speed 32 mph    
Visibility 10 miles    
Events Rain    
Averages and records for this station are not official NWS values.
T = Trace of Precipitation, MM = Missing Value Source: NWS Daily Summary

Daily Weather History Graph

Daily Weather History Graph

Search for Another Location

Airport or City:

Trip Planner

Search our weather history database for the weather conditions in past years. The results will help you decide how hot, cold, wet, or windy it might be!

Date:

Astronomy

Oct. 16, 2011 Rise Set
Actual Time 7:51 AM EDT 6:55 PM EDT
Civil Twilight 7:23 AM EDT 7:23 PM EDT
Nautical Twilight 6:51 AM EDT 7:56 PM EDT
Astronomical Twilight 6:18 AM EDT 8:28 PM EDT
Moon 9:36 PM EDT (10/16) 12:12 PM EDT (10/16)
Length of Visible Light 12h 00m
Length of Day
11h 04m
Waning Gibbous, 82% of the Moon is Illuminated
Oct 16
Waning Gibbous
Oct 19
Last Quarter
Oct 26
New
Nov 2
First Quarter
Nov 10
Full

Hourly Weather History & Observations

Time (EDT) Temp. Windchill Dew Point Humidity Pressure Visibility Wind Dir Wind Speed Gust Speed Precip Events Conditions
12:14 AM 51.8 °F - 35.6 °F 54% 29.83 in 10.0 mi WSW 11.5 mph 16.1 mph N/A   Clear
12:34 AM 51.8 °F - 35.6 °F 54% 29.83 in 10.0 mi WSW 9.2 mph - N/A   Clear
12:54 AM 51.8 °F - 35.6 °F 54% 29.85 in 10.0 mi WSW 11.5 mph 16.1 mph N/A   Clear
1:14 AM 53.6 °F - 35.6 °F 51% 29.84 in 10.0 mi WSW 11.5 mph 16.1 mph N/A   Scattered Clouds
1:34 AM 53.6 °F - 35.6 °F 51% 29.85 in 10.0 mi West 12.7 mph 17.3 mph N/A   Scattered Clouds
1:54 AM 53.6 °F - 35.6 °F 51% 29.85 in 10.0 mi West 13.8 mph 20.7 mph N/A   Mostly Cloudy
2:15 AM 53.6 °F - 35.6 °F 51% 29.84 in 10.0 mi WSW 11.5 mph 20.7 mph N/A   Overcast
2:34 AM 53.6 °F - 35.6 °F 51% 29.84 in 10.0 mi West 10.4 mph 23.0 mph N/A   Scattered Clouds
2:54 AM 53.6 °F - 35.6 °F 51% 29.85 in 10.0 mi West 12.7 mph 20.7 mph N/A   Clear
3:14 AM 55.4 °F - 33.8 °F 44% 29.85 in 10.0 mi West 15.0 mph 26.5 mph N/A   Clear
3:34 AM 53.6 °F - 35.6 °F 51% 29.86 in 10.0 mi West 17.3 mph 25.3 mph N/A   Scattered Clouds
3:55 AM 53.6 °F - 35.6 °F 51% 29.85 in 10.0 mi West 12.7 mph 20.7 mph N/A   Overcast
4:15 AM 53.6 °F - 37.4 °F 54% 29.85 in 10.0 mi West 11.5 mph - N/A   Overcast
4:55 AM 51.8 °F - 37.4 °F 58% 29.85 in 10.0 mi West 9.2 mph - N/A   Overcast
5:14 AM 51.8 °F - 37.4 °F 58% 29.86 in 10.0 mi WSW 5.8 mph - N/A   Overcast
5:34 AM 50.0 °F - 37.4 °F 62% 29.85 in 10.0 mi SW 4.6 mph - N/A   Scattered Clouds
5:55 AM 48.2 °F - 37.4 °F 66% 29.84 in 10.0 mi SSW 3.5 mph - N/A   Scattered Clouds
6:14 AM 48.2 °F - 37.4 °F 66% 29.84 in 10.0 mi SSW 3.5 mph - N/A   Mostly Cloudy
6:34 AM 48.2 °F - 39.2 °F 71% 29.84 in 10.0 mi SSW 4.6 mph - N/A   Mostly Cloudy
7:14 AM 50.0 °F - 39.2 °F 66% 29.83 in 10.0 mi South 4.6 mph - N/A   Overcast
7:34 AM 48.2 °F - 39.2 °F 71% 29.81 in 10.0 mi South 4.6 mph - N/A   Mostly Cloudy
7:55 AM 48.2 °F - 39.2 °F 71% 29.81 in 10.0 mi South 4.6 mph - N/A   Scattered Clouds
8:14 AM 48.2 °F - 39.2 °F 71% 29.80 in 10.0 mi South 5.8 mph - N/A   Scattered Clouds
8:34 AM 48.2 °F - 39.2 °F 71% 29.81 in 10.0 mi South 5.8 mph - N/A   Mostly Cloudy
9:14 AM 48.2 °F - 42.8 °F 82% 29.80 in 10.0 mi South 8.1 mph - N/A Rain Rain
9:34 AM 46.4 °F 42.9 °F 42.8 °F 87% 29.78 in 10.0 mi SSE 6.9 mph - N/A Rain Light Rain
9:55 AM 46.4 °F 44.3 °F 42.8 °F 87% 29.80 in 7.0 mi South 4.6 mph - N/A Rain Rain
10:14 AM 46.4 °F - 44.6 °F 93% 29.79 in 7.0 mi Calm Calm - N/A Rain Light Rain
10:35 AM 48.2 °F - 44.6 °F 87% 29.78 in 10.0 mi SW 3.5 mph - N/A Rain Light Rain
10:54 AM 48.2 °F - 44.6 °F 87% 29.75 in 7.0 mi SSW 8.1 mph - N/A Rain Rain
11:14 AM 48.2 °F - 46.4 °F 93% 29.72 in 7.0 mi South 6.9 mph - N/A Rain Rain
11:34 AM 48.2 °F - 46.4 °F 93% 29.74 in 7.0 mi NNW 8.1 mph - N/A Rain Rain
12:14 PM 50.0 °F - 46.4 °F 87% 29.74 in 10.0 mi SW 6.9 mph - N/A   Mostly Cloudy
12:34 PM 51.8 °F - 48.2 °F 88% 29.74 in 10.0 mi WSW 11.5 mph 18.4 mph N/A   Overcast
12:55 PM 51.8 °F - 48.2 °F 88% 29.73 in 10.0 mi WSW 8.1 mph 19.6 mph N/A   Overcast
1:14 PM 51.8 °F - 48.2 °F 88% 29.74 in 10.0 mi WSW 9.2 mph 16.1 mph N/A Rain Light Rain
1:34 PM 51.8 °F - 48.2 °F 88% 29.71 in 10.0 mi SW 8.1 mph 16.1 mph N/A Rain Light Rain
1:55 PM 51.8 °F - 48.2 °F 88% 29.72 in 10.0 mi West 11.5 mph 17.3 mph N/A Rain Light Rain
2:14 PM 51.8 °F - 48.2 °F 88% 29.69 in 7.0 mi WSW 11.5 mph - N/A Rain Light Rain
2:35 PM 51.8 °F - 50.0 °F 94% 29.71 in 10.0 mi West 9.2 mph 18.4 mph N/A   Mostly Cloudy
2:55 PM 53.6 °F - 48.2 °F 82% 29.70 in 10.0 mi West 10.4 mph 20.7 mph N/A   Overcast
3:14 PM 53.6 °F - 48.2 °F 82% 29.69 in 10.0 mi West 11.5 mph 17.3 mph N/A   Overcast
3:35 PM 53.6 °F - 48.2 °F 82% 29.69 in 10.0 mi WSW 9.2 mph - N/A   Mostly Cloudy
3:54 PM 55.4 °F - 48.2 °F 77% 29.69 in 10.0 mi WSW 13.8 mph - N/A   Clear
4:14 PM 57.2 °F - 48.2 °F 72% 29.70 in 10.0 mi WSW 10.4 mph 16.1 mph N/A   Mostly Cloudy
4:35 PM 57.2 °F - 46.4 °F 67% 29.70 in 10.0 mi West 12.7 mph 20.7 mph N/A   Mostly Cloudy
4:54 PM 57.2 °F - 46.4 °F 67% 29.71 in 10.0 mi West 13.8 mph 24.2 mph N/A   Scattered Clouds
5:14 PM 57.2 °F - 44.6 °F 63% 29.71 in 10.0 mi West 12.7 mph 24.2 mph N/A   Mostly Cloudy
5:35 PM 57.2 °F - 42.8 °F 59% 29.72 in 10.0 mi West 21.9 mph 28.8 mph N/A   Mostly Cloudy
5:54 PM 55.4 °F - 39.2 °F 54% 29.73 in 10.0 mi West 20.7 mph 32.2 mph N/A   Clear
6:14 PM 55.4 °F - 37.4 °F 51% 29.73 in 10.0 mi West 19.6 mph 26.5 mph N/A   Clear
6:35 PM 53.6 °F - 37.4 °F 54% 29.74 in 10.0 mi West 16.1 mph 24.2 mph N/A   Clear
6:54 PM 53.6 °F - 37.4 °F 54% 29.74 in 10.0 mi West 12.7 mph - N/A   Clear
7:14 PM 51.8 °F - 37.4 °F 58% 29.75 in 10.0 mi West 12.7 mph 20.7 mph N/A   Clear
7:34 PM 51.8 °F - 35.6 °F 54% 29.75 in 10.0 mi West 10.4 mph - N/A   Clear
7:54 PM 50.0 °F - 37.4 °F 62% 29.75 in 10.0 mi West 6.9 mph - N/A   Clear
8:15 PM 48.2 °F - 37.4 °F 66% 29.76 in 10.0 mi WSW 6.9 mph - N/A   Clear
8:34 PM 50.0 °F - 37.4 °F 62% 29.76 in 10.0 mi WSW 8.1 mph - N/A   Clear
8:54 PM 48.2 °F - 37.4 °F 66% 29.76 in 10.0 mi WSW 8.1 mph - N/A   Clear
9:15 PM 48.2 °F - 39.2 °F 71% 29.76 in 10.0 mi WSW 9.2 mph - N/A   Clear
9:34 PM 48.2 °F - 39.2 °F 71% 29.76 in 10.0 mi SW 9.2 mph - N/A   Clear
9:54 PM 48.2 °F - 39.2 °F 71% 29.77 in 10.0 mi WSW 9.2 mph - N/A   Clear
10:15 PM 48.2 °F - 39.2 °F 71% 29.77 in 10.0 mi WSW 10.4 mph 16.1 mph N/A   Clear
10:34 PM 50.0 °F - 39.2 °F 66% 29.78 in 10.0 mi WSW 10.4 mph - N/A   Clear
10:54 PM 48.2 °F - 39.2 °F 71% 29.78 in 10.0 mi WSW 8.1 mph - N/A   Clear
11:15 PM 50.0 °F - 39.2 °F 66% 29.78 in 10.0 mi WSW 10.4 mph - N/A   Clear
11:34 PM 48.2 °F - 37.4 °F 66% 29.78 in 10.0 mi WSW 9.2 mph - N/A   Clear
11:54 PM 50.0 °F - 37.4 °F 62% 29.78 in 10.0 mi WSW 11.5 mph 18.4 mph N/A   Clear